Preview of NWS' New Version of Forecast
This preview is not operational and should not be used for support decisions.

Regional Weather Roundup (RWR)

Issued by National Weather Service (NWS)

                            
000
ASUS43 KMKX 230911
RWRWI 

WISCONSIN REGIONAL WEATHER ROUNDUP
NATIONAL WEATHER SERVICE MILWAUKEE/SULLIVAN WI
400 AM CDT TUE JUL 23 2019

NOTE: "FAIR" INDICATES FEW OR NO CLOUDS BELOW 12,000 FEET WITH NO
SIGNIFICANT WEATHER AND/OR OBSTRUCTIONS TO VISIBILITY.

WIZ001-002-006>008-014>016-023>028-231000-
NORTHWEST WISCONSIN
  
CITY           SKY/WX    TMP DP  RH WIND       PRES   REMARKS
SUPERIOR ARPT  FAIR      58  55  89 SW5       30.17R                  
ASHLAND        FAIR      51  50  96 W3        30.16R                  
HAYWARD        FAIR      53  51  93 CALM      30.18S                  
SIREN          FAIR      57  53  85 CALM      30.20R                  
CUMBERLAND     NOT AVBL                                               
RICE LAKE      FAIR      57  45  64 CALM      30.20R                  
CHETEK         FAIR      61  56  84 NW3       30.18S                  
LADYSMITH      FAIR      60  57  91 NW5       30.19S                  
EAU CLAIRE     FAIR      59  54  83 CALM      30.17R                  
MENOMONIE      FAIR      59  53  80 W5        30.18S                  
NEW RICHMOND   FAIR      57  54  90 CALM      30.20S                  
OSCEOLA        FAIR      56  56 100 CALM      30.23R                  
$$
 
WIZ003>005-009-010-017-018-231000-
NORTH CENTRAL WISCONSIN
  
CITY           SKY/WX    TMP DP  RH WIND       PRES   REMARKS
MANITOWISH WTR FAIR      55  55 100 NW8       30.15R                  
ARBOR VITAE    FAIR      57  54  91 NW5       30.14S                  
WOODRUFF       FAIR      57  54  91 NW5       30.14S                  
RHINELANDER    FAIR      58  53  84 W5        30.14R                  
EAGLE RIVER    FAIR      56  54  92 NW3       30.13R                  
LAND O LAKES   FAIR      57  54  88 NW6       30.15R                  
PHILLIPS       FAIR      54  54 100 CALM      30.16S                  
TOMAHAWK       FAIR      54  52  93 W3        30.15S                  
MEDFORD        FAIR      56  54  92 NW6       30.15S                  
MERRILL        FAIR      58  55  89 NW5       30.14R                  
$$
 
WIZ029-030-035-036-043>047-231000-
CENTRAL WISCONSIN
  
CITY           SKY/WX    TMP DP  RH WIND       PRES   REMARKS
WAUSAU         MOCLDY    61  55  81 NW6       30.11R                  
MOSINEE        NOT AVBL                                               
MARSHFIELD     FAIR      60  55  83 NW10      30.14R                  
STEVENS POINT  CLOUDY    61  56  85 NW3       30.13R                  
WAUPACA        NOT AVBL                                               
WAUTOMA        MOCLDY    63  57  81 NW3       30.11S                  
WISC RAPIDS    FAIR      60  56  86 NW6       30.13S                  
CAMP DOUGLAS   NOT AVBL                                               
$$
 
WIZ011>013-019>022-031-037>040-048>050-231000-
NORTHEAST WISCONSIN
  
CITY           SKY/WX    TMP DP  RH WIND       PRES   REMARKS
ANTIGO         FAIR      56  55  94 NW3       30.13R                  
SHAWANO        CLOUDY    63  57  82 W5        30.08R                  
OCONTO         MOCLDY    58  55  89 CALM      30.06S                  
STURGEON BAY   FAIR      62  57  83 W8        30.07R                  
GREEN BAY      FAIR      61  57  87 W5        30.08R                  
MANITOWOC      FAIR      60  55  83 W7        30.07F                  
APPLETON       MOCLDY    59  52  77 W8        30.07S                  
CLINTONVILLE   MOCLDY    61  55  80 W5        30.08S                  
OSHKOSH        FAIR      61  55  81 CALM      30.09S                  
$$
 
WIZ032>034-041-042-053>061-231000-
SOUTHWEST WISCONSIN
  
CITY           SKY/WX    TMP DP  RH WIND       PRES   REMARKS
LA CROSSE      MOCLDY    64  58  80 N3        30.16S                  
SPARTA         FAIR      50  50  99 CALM      30.16S                  
VIROQUA        FAIR      59  59 100 NW5       30.18R                  
BOSCOBEL       FAIR      58  55  90 CALM      30.16S                  
PRAIRIE DU CHI FAIR      60  55  83 CALM      30.17S                  
PLATTEVILLE    FAIR      57  57 100 W5        30.17S                  
$$

WIZ056-057-062-063-064-067-068-231000-
SOUTH CENTRAL WISCONSIN
  
CITY           SKY/WX    TMP DP  RH WIND       PRES   REMARKS
REEDSBURG      CLOUDY    61  56  85 W5        30.14R                  
BARABOO/DELLS  MOCLDY    60  55  81 W5        30.13S                  
LONE ROCK      FAIR      59  57  93 W7        30.14S                  
MINERAL POINT  FAIR      59  59 100 NW5       30.15S                  
MADISON        FAIR      62  55  77 NW3       30.11F                  
MIDDLETON      FAIR      60  56  86 NW5       30.13S                  
WATERTOWN      NOT AVBL                                               
MONROE         FAIR      61  53  75 NW10      30.13S                  
JANESVILLE     FAIR      59  57  94 CALM      30.12S                  
$$
 
WIZ051-052-058>065-066-070>072-231000-
SOUTHEAST WISCONSIN
  
CITY           SKY/WX    TMP DP  RH WIND       PRES   REMARKS
MILWAUKEE      FAIR      65  53  65 NW6       30.08S                  
WAUKESHA       FAIR      57  54  88 W5        30.11S                  
MILWAUKEE/TIMM FAIR      59  50  72 CALM      30.10S                  
RACINE         FAIR      61  53  75 NW7       30.10R                  
KENOSHA        FAIR      61  57  87 NW7       30.09R                  
FOND DU LAC    FAIR      59  56  89 S5        30.10S                  
SHEBOYGAN      FAIR      59  54  83 W7        30.08S                  
WEST BEND      FAIR      57  55  94 W3        30.10S                  
JUNEAU         FAIR      60  56  87 CALM      30.12S                  
$$

LSZ147-162-231000-
LAKE SUPERIOR
  
STATION/POSITION TIME  TEMP    WIND        PRES    WAVE
                       AIR SEA DIR/SP/G            HT/PER
                 (UTC) (F)     (DEG/KT/KT) (MB)    (FT/S)
W MID LAKE BUOY  0850   55 46  300/ 10/ 10 1019.3R   1/ 3
$$
 
LMZ867-665-643>646-231000-
LAKE MICHIGAN
  
STATION/POSITION TIME  TEMP    WIND        PRES    WAVE
                       AIR SEA DIR/SP/G            HT/PER
                 (UTC) (F)     (DEG/KT/KT) (MB)    (FT/S)
CHAMBERS ISLAND  0840   65     300/ 11/ 14 1016.6S
S GREEN BAY BUOY 0800   72 72  250/ 10/ 12 1017.8F
N MID LAKE BUOY  0850   67 65  310/  8/ 12 1017.2S   0
NORTHPORT PIER   0840   69     300/  6/  8 1016.9S
KEWAUNEE LAKESHO 0830   60     300/  5/  8 1017.0F
SHEBOYGAN LAKESH 0900   63     270/  7/  7 1018.1R
ATWATER BUOY     0830   65 66  310/  8/ 10 1018.7F   1/ 4
MILWAUKEE LAKESH 0850   65     310/  7/  8   N/A
S MID LAKE BUOY  0850   67 68  340/ 10/ 14 1018.1R   2/ 4
KENOSHA   LAKESH 0900   63     290/ 10/ 13 1018.3
$$

TC  - TEMPERATURE IN CELSIUS
VSB - VISIBILITY IN STATUTE MILES
WCI - WIND CHILL INDEX
HX  - HEAT INDEX